Location: Antioch Church
(34.9543°N, 88.5145°W)
Time: 05:53:50
(UTC+00:00)

Cosmos 489 Rocket - Pass Details

Date: 11 December 2019
Orbit: 952 x 984 km, 74.0° (Epoch: 25 January)

Event Time Altitude Azimuth Distance (km) Brightness Sun altitude
Rises 00:56:19 0° 342° (NNW) 3,690 7.6 -26.6°
Reaches altitude 10° 00:58:52 10° 343° (NNW) 2,741 6.9 -27.1°
Maximum altitude 01:05:15 87° 74° (ENE) 989 4.4 -28.4°
Enters shadow 01:07:32 43° 161° (SSE) 1,352 5.1 -28.9°
Exits shadow 01:13:32 - 164° (SSE) 3,450 7.3 -30.1°
Sets 01:14:07 0° 164° (SSE) 3,670 7.4 -30.2°
